Home > Weather > St. Paul > Past weeks

Flag for U.S.A. Weather for the Past 2 Weeks in St. Paul, Minnesota, U.S.A.

Now
15 °F

Overcast.


Feels Like: -1 °F
Forecast: 12 / 17 °F
Wind: 17 mph from Northwest

Location: St. Paul Downtown Holman Field

Current Time: Feb 8, 2016 at 1:51:07 PM

Latest Report: Feb 8, 2016 at 12:53 PM


Visibility: 10 mi

Pressure: 29.98 "Hg

Humidity: 64%

Dew point: 5 °F

Location of St. PaulLocation

Historic Weather in St. Paul — Graph

°F

St. Paul Temperature Yesterday

Maximum temperature yesterday: 39 °F (at 10:53 AM)
Minimum temperature yesterday: 17 °F (at 11:53 PM)
Average temperature yesterday: 32 °F

High & Low Weather Summary for the Past Weeks

 TemperatureHumidityPressure
High41 °F (Jan 30, 1:53 PM)96% (Jan 24, 11:53 PM)30.40 "Hg (Jan 24, 11:53 PM)
Low7 °F (Feb 5, 3:53 AM)50% (Feb 3, 2:53 PM)29.52 "Hg (Jan 30, 3:53 PM)
Average27 °F79%29.91 "Hg
* Reported Jan 24 12:53 PM — Feb 8 12:53 PM, St. Paul, Weather by CustomWeather, © 2016

Note: Actual official high and low records may vary slightly from our data, if they occured in-between our weather recording intervals... More about our weather records

Advertising

St. Paul Weather History for the Previous 24 Hours

 ConditionsComfort  
Time TempWeatherWind HumidityBarometerVisibility
12:53 PM
Mon, Feb 8
15 °FOvercast.17 mph64%29.98 "Hg10 mi
11:53 AM14 °FMostly cloudy.22 mph61%30.00 "Hg10 mi
10:53 AM13 °FOvercast.21 mph64%30.00 "Hg10 mi
9:53 AM12 °FLight snow. More clouds than sun.18 mph67%29.98 "Hg10 mi
8:53 AM12 °FLight snow. Overcast.21 mph70%29.96 "Hg3 mi
7:53 AM12 °FOvercast.21 mph67%29.93 "Hg10 mi
6:53 AM13 °FOvercast.17 mph67%29.91 "Hg10 mi
5:53 AM14 °FOvercast.23 mph67%29.88 "Hg10 mi
4:53 AM14 °FLight snow. Overcast.24 mph71%29.85 "Hg8 mi
3:53 AM15 °FLight snow. Overcast.21 mph74%29.83 "Hg7 mi
2:53 AM15 °FLight snow. Overcast.18 mph74%29.82 "Hg8 mi
1:53 AM16 °FLight snow. Overcast.21 mph71%29.81 "Hg9 mi
12:53 AM16 °FLight snow. Overcast.22 mph71%29.80 "Hg10 mi
11:53 PM
Sun, Feb 7
17 °FOvercast.18 mph68%29.80 "Hg10 mi
10:53 PM18 °FLight snow. Mostly cloudy.20 mph71%29.80 "Hg9 mi
9:53 PM19 °FLight snow. Overcast.21 mph74%29.79 "Hg5 mi
8:53 PM21 °FLight snow. Overcast.24 mph74%29.78 "Hg3 mi
8:01 PM24 °FLight snow. Overcast.18 mph81%29.75 "Hg2 mi
6:53 PM27 °FSnow. Ice fog.22 mph89%29.74 "Hg1 mi
5:53 PM33 °FOvercast.22 mph70%29.70 "Hg10 mi
4:53 PM37 °FOvercast.15 mph76%29.65 "Hg10 mi
3:53 PM38 °FOvercast.13 mph70%29.64 "Hg10 mi
2:53 PM39 °FMostly cloudy.13 mph65%29.63 "Hg10 mi
1:53 PM39 °FOvercast.14 mph62%29.63 "Hg10 mi
Weather by CustomWeather, © 2016

See weather overviewHow to use our weather pages